SCP
0 0 0 0 0 0 0 0 0 0 0 0 0 0 0 0 0 0 0 0 1 1 1 1 2 1 1 1 1 2 2 3 3 4 4 3 3 2 2 2 2 1 1 1
0 0 0 0 0 0 0 0 0 0 0 0 0 0 0 0 0 0 0 1 1 1 1 2 3 2 2 2 2 2 3 3 4 5 5 4 3 3 2 2 2 2 1 1
0 0 0 0 0 0 0 0 0 0 0 0 0 0 0 0 0 0 0 0 1 1 2 3 3 3 3 3 2 3 4 5 5 6 6 6 5 4 3 2 2 2 1 1
0 0 0 0 0 0 0 0 0 0 0 0 0 0 0 0 0 0 0 0 0 1 1 2 3 3 4 4 4 4 5 5 6 6 6 6 5 4 3 2 2 1 1 1
0 0 0 0 0 0 0 0 0 0 0 0 0 0 0 0 0 0 0 0 0 0 1 1 2 3 4 4 5 5 5 6 7 7 6 5 5 4 3 3 2 2 1 1
0 0 0 0 0 0 0 0 0 0 0 0 0 0 0 0 0 0 0 0 0 0 0 1 1 2 3 4 4 5 6 6 7 7 5 4 4 4 3 3 3 2 2 1
0 0 0 0 0 0 0 0 0 0 0 0 0 0 0 0 0 0 0 0 0 0 0 1 1 1 2 2 3 4 5 5 6 6 4 3 3 4 4 4 3 2 2 2
0 0 0 0 0 0 0 0 0 0 0 0 0 0 0 0 0 0 0 0 0 0 0 0 1 1 1 1 1 2 3 4 4 4 3 3 3 3 3 3 3 2 1 1
0 0 0 0 0 0 0 0 0 0 0 0 0 0 0 0 0 0 0 0 0 1 0 0 1 1 1 1 1 1 2 3 3 3 3 2 2 2 2 2 1 1 1 1
0 0 0 0 0 0 0 0 0 0 0 0 0 0 0 0 0 0 0 0 0 1 0 0 0 0 0 0 0 0 1 1 2 2 2 1 1 1 1 1 1 0 0 0
0 0 0 0 0 0 0 0 0 0 0 0 0 0 0 0 0 0 0 0 0 0 0 0 0 0 0 0 0 0 0 0 1 1 1 1 1 1 0 0 0 0 0 0
0 0 0 0 0 0 0 0 0 0 0 0 0 0 0 0 0 0 0 0 0 0 0 0 0 0 0 0 0 0 0 0 0 0 0 0 0 0 0 0 0 0 0 0
0 0 0 0 0 0 0 0 0 0 0 0 0 0 0 0 0 0 0 0 0 0 0 0 0 0 0 0 0 0 0 0 0 0 0 0 0 0 0 0 0 0 0 0
0 0 0 0 0 0 0 0 0 0 0 0 0 0 0 0 0 0 0 0 0 0 0 0 0 0 0 0 0 0 0 0 0 0 0 0 0 0 0 0 0 0 0 0
0 0 0 0 0 0 0 0 0 0 0 0 0 0 0 0 0 0 0 0 0 0 0 0 0 0 0 0 0 0 0 0 0 0 0 0 0 0 0 0 0 0 0 0
0 0 0 0 0 0 0 0 0 0 0 0 0 0 0 0 0 0 0 0 0 0 0 0 0 0 0 0 0 0 0 0 0 0 0 0 0 0 0 0 0 0 0 0
0 0 0 0 0 0 0 0 0 0 0 0 0 0 0 0 0 0 0 0 0 0 0 0 0 0 0 0 0 0 0 0 0 0 0 0 0 0 0 0 0 0 0 1
0 0 0 0 0 0 0 0 0 0 0 0 0 0 0 0 0 0 0 0 0 0 0 0 0 0 0 0 0 0 0 0 0 0 0 0 0 0 0 0 0 0 0 0
0 0 0 0 0 0 0 0 0 0 0 0 0 0 0 0 0 0 0 0 0 0 0 0 0 0 0 0 0 0 0 0 0 0 0 0 0 0 0 0 0 0 0 0
0 0 0 0 0 0 0 0 0 0 0 0 0 0 0 0 0 0 0 0 0 0 0 0 0 0 0 0 0 0 0 0 0 0 0 0 0 0 0 0 0 0 0 0
0 0 0 0 0 0 0 0 0 0 0 0 0 0 0 0 0 0 0 0 0 0 0 0 0 0 0 0 0 0 0 0 0 0 0 0 0 0 0 0 0 0 0 0
0 0 0 0 0 0 0 0 0 0 0 0 0 0 0 0 0 0 0 0 0 0 0 0 0 0 0 0 0 0 0 0 0 0 0 0 0 0 0 0 0 0 0 0
0 0 0 0 0 0 0 0 0 0 0 0 0 0 0 0 0 0 0 0 0 0 0 0 0 0 0 0 0 0 0 0 0 0 0 0 0 0 0 0 0 0 0 0
0 0 0 0 0 0 0 0 0 -0 0 0 0 0 0 0 0 0 0 0 0 0 0 0 0 0 0 0 0 0 0 0 0 0 0 0 0 0 0 0 0 0 0 0
0 0 0 0 0 0 0 0 0 -0 0 0 0 0 0 0 0 0 0 0 0 0 0 0 0 0 0 0 0 0 0 0 0 0 0 0 0 0 0 0 0 0 0 0
0 0 0 0 0 0 0 0 0 -0 -0 0 0 0 0 0 0 0 0 0 0 0 0 0 0 0 0 0 0 0 0 0 0 0 0 0 0 0 0 0 0 0 0 0
Wind_Speed
1 2 5 6 4 4 4 5 5 3 3 5 4 2 4 8 10 12 12 12 13 12 11 9 8 8 10 13 15 16 15 15 12 10 9 7 7 6 6 6 8 9 9 9
3 7 7 4 3 2 4 6 6 3 2 6 6 4 3 6 10 11 13 14 15 15 14 12 10 7 8 11 14 17 17 15 14 11 10 8 7 5 5 5 7 9 9 10
7 7 5 3 5 5 3 5 6 8 6 6 8 8 6 4 6 10 12 14 15 16 16 15 13 10 8 7 10 12 14 15 14 12 9 7 6 4 4 4 4 7 8 8
7 8 6 6 9 11 5 6 8 9 9 7 5 8 5 2 4 11 14 15 16 16 16 15 14 13 11 9 6 7 9 10 10 10 8 8 5 3 2 1 2 4 6 7
8 10 11 11 11 11 9 11 11 11 12 13 11 10 4 3 6 12 15 15 15 15 15 14 13 12 11 10 6 3 4 7 8 8 8 8 6 4 3 2 1 1 3 4
10 9 11 12 8 7 12 12 12 10 10 14 13 12 3 6 10 13 14 15 15 14 14 13 12 11 9 9 7 7 9 9 9 8 9 11 9 7 4 3 2 1 1 2
5 11 10 12 12 8 12 11 6 7 8 7 2 5 7 8 9 11 14 14 14 13 12 12 12 10 9 8 8 8 10 10 9 9 9 11 10 7 4 2 1 1 2 3
7 7 11 12 11 11 9 9 7 7 6 5 3 0 7 8 9 10 12 12 13 12 11 10 10 9 8 8 8 9 10 10 9 8 8 8 8 4 2 1 1 3 3 3
7 7 8 9 9 10 10 8 6 8 9 8 4 5 3 11 13 15 15 15 15 13 11 9 9 8 7 8 8 9 9 9 8 8 6 7 6 3 1 1 2 3 4 4
6 3 7 8 8 10 9 8 6 5 6 5 1 4 7 15 17 17 16 16 15 13 10 9 9 8 7 7 7 7 7 7 6 6 5 4 3 0 2 3 5 6 6 6
5 4 5 7 11 12 9 6 6 5 4 5 3 3 7 12 14 14 14 14 14 12 10 9 8 7 6 6 6 6 5 6 6 5 4 3 0 3 5 6 6 6 6 7
4 4 4 6 6 6 5 7 5 4 4 4 3 2 7 11 11 12 12 12 12 12 10 9 8 7 6 6 5 4 4 4 3 3 2 1 4 6 7 7 6 6 6 6
2 4 1 5 3 8 7 11 7 3 3 3 3 4 9 13 14 14 13 12 12 12 12 11 10 9 8 8 6 5 4 3 2 2 2 2 3 3 3 3 2 3 4 5
3 5 6 6 5 5 7 12 13 8 4 4 6 7 11 15 15 15 14 13 12 13 13 12 11 10 10 9 9 7 5 4 2 1 2 2 3 3 3 2 1 2 2 4
3 5 7 7 4 4 8 10 11 10 7 6 7 8 10 13 12 12 11 12 13 14 13 13 12 11 11 11 11 10 10 9 7 7 7 6 5 5 4 4 3 2 2 3
1 4 5 4 2 2 5 9 9 8 7 7 7 7 8 10 8 10 11 11 12 12 12 12 12 12 12 12 11 11 11 10 10 10 9 8 7 7 7 6 5 5 4 3
2 4 3 3 2 5 2 5 5 4 5 5 5 5 10 9 9 9 10 10 11 12 12 12 12 12 11 11 11 11 11 10 11 11 10 9 9 9 8 8 8 7 6 6
2 3 2 1 4 1 6 2 1 2 1 3 4 7 8 8 6 5 9 10 10 11 11 11 10 10 10 10 10 10 10 10 11 11 10 10 9 9 9 9 9 8 7 7
2 3 2 2 2 3 3 3 2 2 1 2 4 7 9 8 1 8 11 11 9 9 9 8 8 8 8 9 9 9 10 10 10 10 10 9 9 9 9 8 8 7 7 7
2 3 4 4 4 1 5 5 1 4 2 2 3 6 9 8 5 9 12 11 10 9 8 8 8 8 8 7 6 7 8 9 8 8 8 8 8 8 8 8 7 6 5 6
5 4 4 4 3 3 6 6 5 4 5 3 2 5 7 8 8 9 10 9 9 8 8 8 7 7 6 6 5 6 7 8 6 6 6 6 7 7 7 6 6 6 6 6
4 4 4 4 4 3 9 7 5 3 4 1 2 4 6 7 7 8 9 9 9 9 9 9 8 7 6 5 5 5 5 4 3 3 4 5 5 5 5 5 5 6 6 6
5 4 2 4 2 5 7 5 1 1 1 1 3 4 5 6 8 9 9 9 9 9 9 8 8 8 6 5 5 5 3 1 1 1 3 3 4 4 5 5 5 5 5 5
4 3 5 6 6 6 7 6 5 4 2 1 2 3 4 6 7 8 8 8 9 9 9 8 9 8 8 7 5 5 3 2 2 2 3 3 4 5 6 4 4 4 5 5
4 7 6 6 4 7 9 9 8 6 4 2 1 1 3 5 7 8 8 8 8 8 8 8 8 9 9 8 6 5 4 3 3 1 2 3 4 5 5 5 4 4 5 6
8 9 7 5 8 7 9 12 10 8 6 4 2 0 2 4 6 7 7 8 8 8 8 8 8 9 9 9 7 5 4 4 4 1 2 2 3 3 4 4 5 4 3 4
Wind_Direction
46 31 19 2 347 327 311 287 283 320 5 307 299 336 58 39 31 22 14 7 1 352 340 330 312 291 270 256 241 226 215 206 199 189 188 186 194 198 204 211 215 213 215 219
167 47 20 24 21 306 299 288 292 290 329 297 286 275 98 55 38 25 13 7 3 355 349 346 333 311 276 258 247 235 217 208 198 191 186 186 182 187 196 212 218 219 219 222
59 32 12 20 19 327 319 325 316 304 297 250 275 246 177 95 45 29 19 11 7 1 352 350 348 343 322 286 261 244 225 206 196 187 175 162 150 145 166 198 211 220 221 221
69 33 15 20 23 342 311 357 313 293 279 267 254 273 182 49 27 19 11 6 2 357 352 351 353 354 352 340 309 257 220 194 179 170 167 154 144 142 166 186 204 216 219 216
68 35 27 22 11 352 340 324 300 286 274 270 243 255 205 58 11 3 360 358 356 353 351 351 353 355 358 -0 11 51 121 135 139 143 131 111 95 77 48 22 349 221 217 214
77 53 33 8 351 357 331 305 279 257 256 254 250 244 159 39 1 349 349 351 351 350 351 351 355 358 7 15 35 72 96 104 112 119 113 104 96 81 57 23 1 316 229 208
81 62 34 6 352 353 349 330 288 252 234 252 286 245 77 32 5 350 343 344 347 348 352 353 357 2 13 26 42 67 87 91 97 101 99 99 94 89 81 45 352 278 235 207
8 43 28 16 6 338 347 343 330 304 298 311 294 160 91 24 7 355 349 347 349 352 352 355 2 10 23 41 54 69 79 85 87 88 88 90 90 90 84 55 308 264 250 216
11 45 41 27 17 0 343 353 339 297 287 278 247 106 102 3 0 357 354 353 351 350 353 3 15 24 37 50 57 66 75 78 79 81 78 76 79 73 76 252 256 252 233 201
360 37 40 23 16 29 3 335 315 299 304 293 324 55 5 350 348 346 349 349 347 348 2 22 30 31 40 48 59 68 69 70 73 74 76 83 82 58 252 246 242 236 219 197
354 32 68 45 26 4 356 355 330 302 301 309 323 49 10 339 337 339 344 347 349 353 18 34 35 32 24 24 30 34 42 59 64 67 74 74 35 255 249 245 243 237 222 204
3 331 81 75 61 28 4 352 330 328 330 314 301 33 11 347 348 353 352 358 359 9 30 41 36 25 12 6 4 7 11 31 30 35 39 291 246 241 235 231 229 223 214 209
6 322 232 150 97 25 14 11 4 315 310 349 349 5 3 358 2 4 3 9 14 24 33 37 34 25 14 6 360 357 343 340 331 329 317 277 267 262 250 230 229 234 223 215
298 46 43 60 50 9 11 16 21 23 12 8 9 355 358 357 358 1 6 14 26 35 37 36 34 28 23 19 17 19 17 11 7 18 21 356 357 356 350 358 328 278 256 240
268 103 102 107 104 43 39 26 28 34 21 13 6 14 357 344 347 358 9 19 32 38 40 39 38 35 34 35 35 36 36 36 44 54 50 37 31 29 27 25 12 356 320 276
317 139 151 155 193 329 46 33 25 26 13 7 25 36 343 331 348 6 15 24 33 39 42 42 41 39 38 39 41 44 46 46 51 54 50 42 41 42 39 36 37 39 34 20
183 181 206 133 161 225 101 35 17 19 15 359 9 342 323 336 356 7 9 19 34 38 40 40 40 39 38 39 39 43 44 49 53 54 52 48 49 49 46 47 48 47 49 48
230 198 228 209 213 210 81 81 323 310 0 346 325 326 332 336 337 16 21 16 23 27 31 34 36 39 41 43 45 48 49 51 52 52 51 48 49 50 49 48 45 43 46 49
304 234 230 242 235 123 161 192 239 274 66 20 338 346 350 333 163 67 29 11 7 9 14 22 25 33 40 38 36 47 53 54 52 48 47 46 47 46 45 44 41 35 37 43
141 229 243 229 251 198 134 132 168 252 164 92 350 354 355 353 48 37 4 353 356 358 0 2 10 24 35 34 29 43 51 54 52 47 47 47 45 42 40 39 36 36 38 39
207 209 232 238 250 126 129 142 187 232 94 83 2 355 356 7 3 343 342 351 353 352 352 348 354 11 15 11 12 32 42 48 46 43 43 41 40 37 32 29 29 29 36 40
254 229 217 226 234 156 145 169 212 43 73 49 354 352 348 344 343 348 353 357 358 357 355 348 343 348 352 353 352 20 36 38 42 43 42 38 31 24 20 23 27 30 28 35
233 255 276 251 21 93 169 194 156 139 216 351 340 343 337 337 346 349 352 356 358 357 355 347 337 329 332 347 342 347 18 355 355 42 43 31 31 35 26 24 29 35 36 34
197 202 236 241 220 196 194 200 196 205 236 287 309 322 329 337 343 347 349 351 352 353 352 343 335 331 335 340 330 322 326 290 285 18 32 26 24 34 47 45 36 37 36 33
207 187 218 233 190 187 205 202 192 189 202 211 225 309 339 342 348 348 347 351 349 345 344 341 338 332 328 331 331 329 312 286 290 1 48 33 40 35 44 62 49 39 53 28
195 195 199 209 186 189 186 184 183 185 191 193 200 276 351 346 348 348 351 352 346 343 343 344 345 339 337 339 341 347 326 293 290 351 48 42 46 47 45 61 101 97 53 40